AAL1082 KMIA-MKJP

Flight info

Callsign AAL1082
Flight time 1h 26m
Altitude 37000
Route GWAVA2 URSUS UP406 PUTUL DCT SENLA DCT LIBEX DCT
Aircraft B738/M-SDE2E3FGHIRWXY/LB1

Departure

Time 2026-04-30 13:06
Airport Miami International Airport (KMIA)

Arrival

Time 2026-04-30 14:32
Airport Norman Manley International Airport (MKJP)
Time Latitude Longitude Altitude Speed Heading
2026-04-30 12:33 25.79733 -80.28354 14 ft 0 kts 357°
2026-04-30 12:51 25.79731 -80.28354 14 ft 2 kts 357°
2026-04-30 12:51 25.79713 -80.28353 14 ft 3 kts 349°
2026-04-30 12:51 25.79694 -80.28347 16 ft 3 kts 333°
2026-04-30 12:52 25.79679 -80.28336 17 ft 3 kts 299°
2026-04-30 12:52 25.79674 -80.28323 14 ft 1 kts 267°
2026-04-30 12:52 25.79674 -80.28322 14 ft 1 kts 267°
2026-04-30 12:54 25.79674 -80.28337 14 ft 7 kts 267°
2026-04-30 12:55 25.79671 -80.28393 14 ft 7 kts 267°
2026-04-30 12:55 25.79669 -80.28449 14 ft 7 kts 267°
2026-04-30 12:55 25.79665 -80.28503 14 ft 7 kts 263°
2026-04-30 12:55 25.79656 -80.28554 15 ft 7 kts 253°
2026-04-30 12:56 25.79651 -80.28607 14 ft 7 kts 267°
2026-04-30 12:56 25.79648 -80.28658 14 ft 7 kts 265°
2026-04-30 12:56 25.79643 -80.28709 14 ft 7 kts 264°
2026-04-30 12:56 25.79641 -80.28758 14 ft 6 kts 274°
2026-04-30 12:57 25.79656 -80.28803 15 ft 6 kts 317°
2026-04-30 12:57 25.79697 -80.28815 14 ft 6 kts 357°
2026-04-30 12:57 25.79741 -80.28817 15 ft 6 kts 357°
2026-04-30 12:57 25.79783 -80.28820 14 ft 6 kts 357°
2026-04-30 12:58 25.79825 -80.28821 14 ft 6 kts 358°
2026-04-30 12:58 25.79866 -80.28823 14 ft 6 kts 357°
2026-04-30 12:58 25.79906 -80.28823 14 ft 6 kts 11°
2026-04-30 12:58 25.79933 -80.28792 15 ft 6 kts 67°
2026-04-30 12:59 25.79936 -80.28741 15 ft 11 kts 88°
2026-04-30 12:59 25.79940 -80.28641 14 ft 13 kts 87°
2026-04-30 12:59 25.79945 -80.28541 14 ft 13 kts 88°
2026-04-30 12:59 25.79948 -80.28443 14 ft 13 kts 88°
2026-04-30 13:00 25.79951 -80.28347 14 ft 12 kts 88°
2026-04-30 13:00 25.79956 -80.28254 14 ft 12 kts 86°
2026-04-30 13:00 25.79960 -80.28164 14 ft 12 kts 88°
2026-04-30 13:00 25.79963 -80.28076 14 ft 11 kts 88°
2026-04-30 13:01 25.79966 -80.27990 14 ft 11 kts 88°
2026-04-30 13:01 25.79970 -80.27907 14 ft 11 kts 88°
2026-04-30 13:01 25.79974 -80.27814 14 ft 17 kts 86°
2026-04-30 13:01 25.79980 -80.27673 14 ft 18 kts 87°
2026-04-30 13:02 25.79985 -80.27535 14 ft 18 kts 87°
2026-04-30 13:02 25.79991 -80.27401 14 ft 17 kts 88°
2026-04-30 13:02 25.79996 -80.27272 15 ft 16 kts 88°
2026-04-30 13:02 25.80000 -80.27170 15 ft 10 kts 87°
2026-04-30 13:03 25.80013 -80.27118 16 ft 5 kts 41°
2026-04-30 13:03 25.80036 -80.27095 15 ft 4 kts 41°
2026-04-30 13:03 25.80057 -80.27070 16 ft 4 kts 49°
2026-04-30 13:03 25.80077 -80.27044 16 ft 5 kts 49°
2026-04-30 13:04 25.80105 -80.27008 15 ft 6 kts 49°
2026-04-30 13:04 25.80138 -80.26978 16 ft 6 kts 22°
2026-04-30 13:04 25.80180 -80.26975 16 ft 6 kts 342°
2026-04-30 13:04 25.80202 -80.27012 17 ft 6 kts 277°
2026-04-30 13:05 25.80197 -80.27088 16 ft 28 kts 266°
2026-04-30 13:05 25.80175 -80.27587 15 ft 102 kts 267°
2026-04-30 13:05 25.80136 -80.28610 45 ft 158 kts 267°
2026-04-30 13:06 25.80005 -80.31230 1232 ft 181 kts 265°
2026-04-30 13:06 25.79903 -80.32577 1762 ft 170 kts 264°
2026-04-30 13:06 25.79741 -80.33844 2198 ft 166 kts 254°
2026-04-30 13:06 25.79411 -80.35070 2612 ft 164 kts 252°
2026-04-30 13:07 25.79052 -80.36348 2878 ft 188 kts 252°
2026-04-30 13:07 25.78641 -80.37828 3145 ft 213 kts 252°
2026-04-30 13:07 25.77976 -80.39391 3329 ft 236 kts 233°
2026-04-30 13:07 25.76848 -80.40816 3528 ft 257 kts 226°
2026-04-30 13:08 25.75564 -80.42268 4094 ft 267 kts 225°
2026-04-30 13:08 25.74207 -80.43662 4962 ft 267 kts 212°
2026-04-30 13:08 25.72470 -80.44393 5685 ft 272 kts 188°
2026-04-30 13:08 25.70563 -80.44477 6406 ft 278 kts 180°
2026-04-30 13:09 25.68614 -80.44445 7083 ft 283 kts 176°
2026-04-30 13:09 25.66795 -80.43878 7766 ft 288 kts 151°
2026-04-30 13:09 25.65296 -80.42441 8500 ft 293 kts 127°
2026-04-30 13:09 25.64224 -80.40495 9255 ft 298 kts 119°
2026-04-30 13:10 25.63219 -80.38461 10009 ft 303 kts 119°
2026-04-30 13:10 25.62178 -80.36370 10452 ft 321 kts 119°
2026-04-30 13:10 25.61039 -80.34126 10621 ft 346 kts 120°
2026-04-30 13:10 25.59758 -80.31788 10851 ft 365 kts 128°
2026-04-30 13:11 25.57982 -80.29721 11351 ft 372 kts 136°
2026-04-30 13:11 25.56087 -80.27730 11994 ft 377 kts 137°
2026-04-30 13:11 25.54161 -80.25731 12646 ft 382 kts 137°
2026-04-30 13:11 25.52208 -80.23695 13295 ft 387 kts 137°
2026-04-30 13:12 25.50239 -80.21625 13923 ft 393 kts 137°
2026-04-30 13:12 25.48268 -80.19540 14540 ft 397 kts 137°
2026-04-30 13:12 25.46275 -80.17421 15246 ft 399 kts 137°
2026-04-30 13:13 25.42249 -80.13129 16603 ft 405 kts 137°
2026-04-30 13:13 25.40203 -80.10949 17265 ft 408 kts 137°
2026-04-30 13:13 25.36070 -80.06547 18497 ft 416 kts 137°
2026-04-30 13:14 25.33994 -80.04338 19017 ft 419 kts 136°
2026-04-30 13:14 25.31885 -80.02094 19529 ft 423 kts 136°
2026-04-30 13:14 25.27594 -79.97535 20552 ft 431 kts 136°
2026-04-30 13:15 25.25309 -79.95370 21038 ft 435 kts 145°
2026-04-30 13:15 25.20176 -79.91730 22008 ft 442 kts 149°
2026-04-30 13:15 25.17571 -79.89973 22467 ft 446 kts 149°
2026-04-30 13:16 25.14921 -79.88166 22940 ft 450 kts 148°
2026-04-30 13:16 25.12260 -79.86323 23401 ft 453 kts 148°
2026-04-30 13:16 25.09591 -79.84451 23804 ft 457 kts 147°
2026-04-30 13:17 25.04221 -79.80651 24669 ft 459 kts 147°
2026-04-30 13:17 25.01533 -79.78747 25108 ft 460 kts 147°
2026-04-30 13:17 24.96130 -79.74926 25917 ft 463 kts 147°
2026-04-30 13:18 24.93415 -79.73008 26317 ft 464 kts 147°
2026-04-30 13:18 24.87955 -79.69158 27088 ft 467 kts 147°
2026-04-30 13:18 24.85209 -79.67223 27454 ft 469 kts 147°
2026-04-30 13:19 24.82456 -79.65284 27811 ft 471 kts 147°
2026-04-30 13:19 24.79687 -79.63334 28156 ft 472 kts 147°
2026-04-30 13:19 24.76917 -79.61384 28509 ft 474 kts 147°
2026-04-30 13:19 24.74133 -79.59424 28831 ft 475 kts 147°
2026-04-30 13:20 24.71344 -79.57462 29151 ft 477 kts 147°
2026-04-30 13:20 24.68542 -79.55492 29460 ft 479 kts 147°
2026-04-30 13:20 24.65726 -79.53513 29750 ft 481 kts 147°
2026-04-30 13:20 24.62900 -79.51529 30033 ft 483 kts 147°
2026-04-30 13:21 24.60064 -79.49538 30282 ft 484 kts 147°
2026-04-30 13:21 24.57223 -79.47545 30578 ft 484 kts 147°
2026-04-30 13:21 24.54386 -79.45556 30940 ft 483 kts 147°
2026-04-30 13:22 24.48738 -79.41599 31658 ft 481 kts 147°
2026-04-30 13:22 24.45948 -79.39646 31978 ft 481 kts 147°
2026-04-30 13:22 24.40317 -79.35707 32717 ft 478 kts 147°
2026-04-30 13:23 24.37512 -79.33746 33089 ft 477 kts 147°
2026-04-30 13:23 24.31919 -79.29839 33797 ft 476 kts 147°
2026-04-30 13:24 24.26366 -79.25913 34417 ft 475 kts 146°
2026-04-30 13:24 24.20842 -79.21933 34965 ft 474 kts 146°
2026-04-30 13:25 24.15351 -79.17984 35502 ft 474 kts 147°
2026-04-30 13:25 24.09831 -79.14030 36040 ft 474 kts 147°
2026-04-30 13:26 24.01543 -79.08113 36766 ft 474 kts 149°
2026-04-30 13:26 23.95323 -79.05861 37009 ft 476 kts 171°
2026-04-30 13:28 23.79041 -79.02849 37007 ft 470 kts 171°
2026-04-30 13:28 23.69397 -79.00948 37012 ft 469 kts 171°
2026-04-30 13:29 23.56566 -78.98410 37012 ft 470 kts 171°
2026-04-30 13:31 23.40428 -78.95231 37010 ft 472 kts 171°
2026-04-30 13:32 23.24226 -78.92047 37008 ft 473 kts 171°
2026-04-30 13:33 23.11302 -78.89511 37006 ft 473 kts 172°
2026-04-30 13:34 23.01597 -78.87606 37007 ft 472 kts 172°
2026-04-30 13:35 22.88687 -78.85076 37010 ft 470 kts 172°
2026-04-30 13:36 22.75867 -78.82569 37005 ft 469 kts 172°
2026-04-30 13:36 22.66241 -78.80689 37008 ft 468 kts 172°
2026-04-30 13:37 22.56618 -78.78812 37004 ft 468 kts 172°
2026-04-30 13:38 22.47041 -78.76951 37012 ft 468 kts 173°
2026-04-30 13:39 22.34192 -78.74457 37007 ft 469 kts 173°
2026-04-30 13:40 22.24540 -78.72585 37007 ft 470 kts 173°
2026-04-30 13:40 22.19192 -78.71549 37005 ft 470 kts 173°
2026-04-30 13:41 22.11702 -78.70100 37013 ft 471 kts 173°
2026-04-30 13:41 22.05248 -78.68852 37010 ft 471 kts 173°
2026-04-30 13:42 21.99876 -78.67815 37009 ft 471 kts 173°
2026-04-30 13:42 21.90166 -78.65941 37017 ft 472 kts 174°
2026-04-30 13:43 21.83701 -78.64695 37011 ft 472 kts 174°
2026-04-30 13:43 21.77274 -78.63458 37009 ft 472 kts 174°
2026-04-30 13:44 21.70811 -78.62214 37011 ft 471 kts 174°
2026-04-30 13:44 21.64346 -78.60972 37009 ft 471 kts 174°
2026-04-30 13:45 21.54651 -78.59111 37005 ft 471 kts 174°
2026-04-30 13:46 21.48233 -78.57880 37002 ft 471 kts 174°
2026-04-30 13:46 21.41782 -78.56644 37007 ft 470 kts 174°
2026-04-30 13:47 21.35325 -78.55408 36998 ft 470 kts 174°
2026-04-30 13:47 21.28884 -78.54176 37008 ft 470 kts 174°
2026-04-30 13:48 21.22440 -78.52945 37014 ft 470 kts 174°
2026-04-30 13:48 21.16036 -78.51723 37001 ft 470 kts 174°
2026-04-30 13:49 21.09593 -78.50494 37002 ft 470 kts 174°
2026-04-30 13:49 21.03154 -78.49267 37004 ft 470 kts 174°
2026-04-30 13:50 20.96718 -78.48042 37001 ft 470 kts 174°
2026-04-30 13:50 20.87058 -78.46204 37001 ft 470 kts 175°
2026-04-30 13:51 20.80622 -78.44982 37001 ft 470 kts 174°
2026-04-30 13:51 20.74217 -78.43766 37000 ft 470 kts 174°
2026-04-30 13:52 20.67782 -78.42545 36999 ft 470 kts 174°
2026-04-30 13:52 20.61335 -78.41324 37000 ft 470 kts 174°
2026-04-30 13:53 20.54891 -78.40103 36998 ft 470 kts 174°
2026-04-30 13:53 20.48440 -78.38883 36996 ft 470 kts 175°
2026-04-30 13:54 20.42041 -78.37674 36996 ft 469 kts 175°
2026-04-30 13:54 20.35610 -78.36459 36994 ft 469 kts 175°
2026-04-30 13:55 20.29182 -78.35246 36990 ft 469 kts 175°
2026-04-30 13:55 20.22750 -78.34033 36990 ft 468 kts 175°
2026-04-30 13:56 20.16329 -78.32824 36993 ft 468 kts 175°
2026-04-30 13:56 20.09912 -78.31615 36996 ft 468 kts 175°
2026-04-30 13:57 20.03545 -78.30418 36994 ft 467 kts 175°
2026-04-30 13:57 19.97195 -78.28829 36987 ft 473 kts 164°
2026-04-30 13:58 19.88448 -78.23734 36984 ft 480 kts 153°
2026-04-30 13:59 19.82734 -78.20059 36986 ft 479 kts 153°
2026-04-30 13:59 19.77014 -78.16440 36991 ft 478 kts 154°
2026-04-30 14:00 19.71287 -78.12860 36992 ft 477 kts 154°
2026-04-30 14:00 19.62700 -78.07515 36988 ft 476 kts 154°
2026-04-30 14:01 19.57026 -78.03985 36987 ft 476 kts 154°
2026-04-30 14:01 19.53737 -78.01939 36988 ft 475 kts 154°
2026-04-30 14:02 19.52037 -78.00882 36989 ft 475 kts 154°
2026-04-30 14:02 19.46339 -77.97340 36990 ft 474 kts 154°
2026-04-30 14:03 19.40642 -77.93803 36985 ft 474 kts 154°
2026-04-30 14:03 19.37795 -77.92036 36861 ft 476 kts 154°
2026-04-30 14:03 19.34923 -77.90256 36283 ft 479 kts 154°
2026-04-30 14:04 19.32058 -77.88479 35652 ft 477 kts 154°
2026-04-30 14:04 19.29184 -77.86697 34957 ft 478 kts 153°
2026-04-30 14:04 19.26305 -77.84914 34221 ft 480 kts 153°
2026-04-30 14:04 19.23408 -77.83120 33391 ft 483 kts 153°
2026-04-30 14:05 19.20510 -77.81327 32569 ft 484 kts 152°
2026-04-30 14:05 19.17630 -77.79545 31776 ft 485 kts 152°
2026-04-30 14:05 19.14713 -77.77741 30932 ft 487 kts 151°
2026-04-30 14:05 19.11800 -77.75939 30339 ft 484 kts 151°
2026-04-30 14:06 19.08896 -77.74143 29659 ft 481 kts 151°
2026-04-30 14:06 19.03177 -77.70608 28358 ft 471 kts 151°
2026-04-30 14:07 18.97564 -77.67142 27141 ft 462 kts 150°
2026-04-30 14:07 18.94805 -77.65441 26549 ft 457 kts 150°
2026-04-30 14:07 18.92060 -77.63748 25964 ft 453 kts 150°
2026-04-30 14:08 18.86652 -77.60416 24759 ft 447 kts 150°
2026-04-30 14:08 18.83974 -77.58767 24159 ft 445 kts 150°
2026-04-30 14:08 18.78682 -77.55509 22899 ft 440 kts 149°
2026-04-30 14:09 18.76048 -77.53889 22285 ft 435 kts 149°
2026-04-30 14:09 18.73438 -77.52283 21693 ft 431 kts 149°
2026-04-30 14:09 18.68309 -77.49130 20546 ft 423 kts 149°
2026-04-30 14:10 18.65776 -77.47574 19986 ft 419 kts 149°
2026-04-30 14:10 18.63294 -77.46049 19416 ft 416 kts 149°
2026-04-30 14:10 18.60801 -77.44519 18898 ft 412 kts 149°
2026-04-30 14:10 18.58333 -77.43003 18351 ft 409 kts 149°
2026-04-30 14:11 18.55886 -77.41501 17716 ft 406 kts 150°
2026-04-30 14:11 18.53456 -77.40010 17147 ft 402 kts 150°
2026-04-30 14:11 18.51054 -77.38537 16584 ft 398 kts 150°
2026-04-30 14:11 18.48662 -77.37104 16017 ft 393 kts 154°
2026-04-30 14:12 18.46122 -77.36067 15473 ft 389 kts 165°
2026-04-30 14:12 18.43495 -77.35510 15099 ft 380 kts 175°
2026-04-30 14:12 18.40875 -77.35298 14514 ft 379 kts 171°
2026-04-30 14:12 18.39213 -77.34737 14106 ft 382 kts 154°
2026-04-30 14:13 18.36567 -77.32282 13346 ft 382 kts 127°
2026-04-30 14:13 18.35037 -77.30011 12819 ft 378 kts 126°
2026-04-30 14:13 18.33535 -77.27753 12265 ft 375 kts 126°
2026-04-30 14:13 18.32069 -77.25548 11752 ft 371 kts 126°
2026-04-30 14:14 18.30595 -77.23341 11221 ft 367 kts 126°
2026-04-30 14:14 18.29127 -77.21157 10783 ft 361 kts 126°
2026-04-30 14:14 18.27700 -77.19046 10633 ft 347 kts 126°
2026-04-30 14:14 18.26325 -77.17018 10478 ft 335 kts 126°
2026-04-30 14:15 18.24995 -77.15061 10337 ft 323 kts 126°
2026-04-30 14:15 18.23708 -77.13170 10203 ft 313 kts 127°
2026-04-30 14:15 18.22462 -77.11341 10067 ft 302 kts 127°
2026-04-30 14:15 18.21256 -77.09572 9975 ft 291 kts 127°
2026-04-30 14:16 18.20086 -77.07855 9599 ft 293 kts 126°
2026-04-30 14:16 18.18911 -77.06135 9280 ft 286 kts 126°
2026-04-30 14:16 18.17758 -77.04446 8931 ft 282 kts 126°
2026-04-30 14:16 18.16630 -77.02792 8619 ft 275 kts 126°
2026-04-30 14:17 18.15529 -77.01178 8336 ft 268 kts 126°
2026-04-30 14:17 18.14449 -76.99598 8067 ft 263 kts 126°
2026-04-30 14:17 18.13391 -76.98048 8022 ft 260 kts 126°
2026-04-30 14:17 18.12339 -76.96507 7997 ft 258 kts 126°
2026-04-30 14:18 18.11307 -76.94997 7982 ft 248 kts 126°
2026-04-30 14:18 18.10306 -76.93577 7968 ft 236 kts 133°
2026-04-30 14:18 18.07935 -76.91446 7968 ft 219 kts 140°
2026-04-30 14:19 18.05745 -76.89280 7988 ft 221 kts 118°
2026-04-30 14:19 18.05110 -76.87796 7998 ft 225 kts 112°
2026-04-30 14:19 18.04523 -76.86257 8005 ft 228 kts 112°
2026-04-30 14:20 18.03939 -76.84706 8003 ft 229 kts 111°
2026-04-30 14:20 18.03357 -76.83147 8001 ft 229 kts 111°
2026-04-30 14:20 18.02188 -76.80017 7992 ft 230 kts 111°
2026-04-30 14:21 18.01602 -76.78449 7993 ft 230 kts 111°
2026-04-30 14:21 18.01021 -76.76890 7985 ft 229 kts 111°
2026-04-30 14:21 17.99864 -76.73792 8003 ft 227 kts 111°
2026-04-30 14:22 17.99293 -76.72264 7863 ft 229 kts 111°
2026-04-30 14:22 17.98118 -76.69125 7384 ft 230 kts 111°
2026-04-30 14:22 17.97531 -76.67561 7166 ft 231 kts 111°
2026-04-30 14:23 17.96345 -76.64422 6720 ft 231 kts 111°
2026-04-30 14:23 17.95155 -76.61283 6260 ft 232 kts 111°
2026-04-30 14:24 17.93953 -76.58168 5793 ft 230 kts 111°
2026-04-30 14:24 17.93344 -76.56610 5547 ft 231 kts 111°
2026-04-30 14:25 17.92130 -76.53518 5056 ft 227 kts 111°
2026-04-30 14:25 17.89888 -76.51418 4615 ft 227 kts 169°
2026-04-30 14:26 17.87101 -76.52668 4092 ft 230 kts 234°
2026-04-30 14:26 17.86250 -76.54068 3890 ft 230 kts 237°
2026-04-30 14:26 17.85415 -76.57185 3408 ft 228 kts 287°
2026-04-30 14:27 17.85890 -76.58722 3218 ft 221 kts 291°
2026-04-30 14:27 17.86420 -76.60225 3061 ft 221 kts 292°
2026-04-30 14:27 17.86983 -76.61718 3011 ft 218 kts 293°
2026-04-30 14:28 17.88075 -76.64551 2689 ft 199 kts 293°
2026-04-30 14:28 17.88574 -76.65841 2450 ft 181 kts 293°
2026-04-30 14:28 17.89030 -76.67023 2196 ft 168 kts 294°
2026-04-30 14:28 17.89448 -76.68103 1984 ft 153 kts 293°
2026-04-30 14:29 17.90193 -76.70029 1616 ft 137 kts 293°
2026-04-30 14:29 17.90777 -76.71539 1323 ft 135 kts 293°
2026-04-30 14:30 17.91816 -76.74220 727 ft 127 kts 292°
2026-04-30 14:31 17.92476 -76.75948 410 ft 130 kts 291°
2026-04-30 14:31 17.93130 -76.77646 40 ft 120 kts 291°
2026-04-30 14:31 17.93409 -76.78348 25 ft 77 kts 292°
2026-04-30 14:32 17.93698 -76.79091 21 ft 25 kts 292°
2026-04-30 14:32 17.93775 -76.79183 19 ft 15 kts 322°
2026-04-30 14:32 17.93849 -76.79238 19 ft 11 kts 344°
2026-04-30 14:33 17.93898 -76.79189 19 ft 11 kts 97°
2026-04-30 14:33 17.93841 -76.79038 21 ft 11 kts 112°
2026-04-30 14:33 17.93812 -76.78963 21 ft 14 kts 112°
2026-04-30 14:34 17.93770 -76.78853 21 ft 17 kts 112°
2026-04-30 14:34 17.93727 -76.78742 21 ft 16 kts 111°
2026-04-30 14:34 17.93686 -76.78635 24 ft 15 kts 111°
2026-04-30 14:34 17.93646 -76.78533 22 ft 15 kts 112°
2026-04-30 14:35 17.93571 -76.78342 25 ft 14 kts 112°
2026-04-30 14:35 17.93537 -76.78252 23 ft 13 kts 112°
2026-04-30 14:35 17.93503 -76.78166 26 ft 13 kts 112°
2026-04-30 14:36 17.93471 -76.78081 26 ft 12 kts 112°
2026-04-30 14:36 17.93439 -76.77999 29 ft 12 kts 112°
2026-04-30 14:36 17.93447 -76.77952 27 ft 10 kts 43°
2026-04-30 14:36 17.93498 -76.77931 27 ft 9 kts 21°
2026-04-30 14:37 17.93556 -76.77906 24 ft 8 kts 21°
2026-04-30 14:37 17.93593 -76.77908 24 ft 5 kts 335°
2026-04-30 14:37 17.93619 -76.77930 28 ft 5 kts 312°
2026-04-30 14:37 17.93630 -76.77960 26 ft 0 kts 289°
2026-04-30 14:38 17.93627 -76.77951 26 ft 2 kts 289°
2026-04-30 14:38 17.93628 -76.77954 26 ft 0 kts 290°
2026-04-30 14:39 17.93608 -76.77964 25 ft 0 kts 290°